Weather History for Tucumcari, NM

Change the Weather History Date:

Tuesday, March 12, 2013

  Actual Average Record
Temperature  
Mean Temperature 45 °F -  
Max Temperature 54 °F 65 °F 92 °F (1989)
Min Temperature 36 °F 33 °F 4 °F (1909)
Degree Days  
Heating Degree Days 20    
Moisture  
Dew Point 26 °F    
Average Humidity 49    
Maximum Humidity 67    
Minimum Humidity 28    
Precipitation  
Precipitation 0.00 in - - ()
Sea Level Pressure  
Sea Level Pressure 30.19 in    
Wind  
Wind Speed 12 mph (ENE)    
Max Wind Speed 25 mph    
Max Gust Speed 32 mph    
Visibility 10 miles    
Events      
Averages and records for this station are not official NWS values.
T = Trace of Precipitation, MM = Missing Value Source: NWS Daily Summary

Daily Weather History Graph

Daily Weather History Graph

Search for Another Location

Airport:

Trip Planner

Search our weather history database for the weather conditions in past years. The results will help you decide how hot, cold, wet, or windy it might be!

Date:

Astronomy

Mar. 12, 2013 Rise Set
Actual Time 7:08 AM MDT 6:59 PM MDT
Civil Twilight 6:43 AM MDT 7:25 PM MDT
Nautical Twilight 6:14 AM MDT 7:54 PM MDT
Astronomical Twilight 5:44 AM MDT 8:24 PM MDT
Moon 7:20 AM MDT (3/12) 8:12 PM MDT (3/12)
Length of Visible Light 12h 41m
Length of Day
11h 50m
New Moon, 1% of the Moon is Illuminated
Mar 12
New Moon
Mar 19
First Quarter
Mar 27
Full
Apr 2
Last Quarter
Apr 10
New

Hourly Weather History & Observations

Time (MDT) Temp. Windchill Dew Point Humidity Pressure Visibility Wind Dir Wind Speed Gust Speed Precip Events Conditions
12:53 AM 46.9 °F - 15.1 °F 28% 29.88 in 10.0 mi NNW 12.7 mph - N/A   Clear
1:53 AM 45.0 °F 38.9 °F 19.0 °F 36% 29.94 in 10.0 mi North 12.7 mph - N/A   Clear
2:53 AM 42.1 °F 32.1 °F 25.0 °F 51% 29.99 in 10.0 mi NNE 25.3 mph 32.2 mph N/A   Clear
3:53 AM 39.9 °F 30.5 °F 28.0 °F 63% 30.01 in 10.0 mi NNE 19.6 mph 29.9 mph N/A   Clear
4:53 AM 37.9 °F 28.9 °F 27.0 °F 65% 30.06 in 10.0 mi NE 16.1 mph 24.2 mph N/A   Clear
5:53 AM 36.0 °F 28.5 °F 25.0 °F 64% 30.12 in 10.0 mi NNE 10.4 mph - N/A   Clear
6:53 AM 36.0 °F 27.1 °F 26.1 °F 67% 30.15 in 10.0 mi NNE 13.8 mph - N/A   Clear
7:53 AM 37.0 °F 29.8 °F 27.0 °F 67% 30.19 in 10.0 mi NNE 10.4 mph - N/A   Clear
8:53 AM 39.9 °F 31.1 °F 28.0 °F 63% 30.24 in 10.0 mi NE 17.3 mph - N/A   Clear
9:53 AM 42.1 °F 33.6 °F 28.9 °F 60% 30.27 in 10.0 mi NE 18.4 mph - N/A   Scattered Clouds
10:53 AM 46.0 °F 40.2 °F 28.9 °F 51% 30.26 in 10.0 mi NE 12.7 mph 21.9 mph N/A   Clear
11:53 AM 46.9 °F - 28.0 °F 48% 30.27 in 10.0 mi NE 8.1 mph 16.1 mph N/A   Clear
12:53 PM 48.0 °F - 28.0 °F 46% 30.27 in 10.0 mi ENE 8.1 mph - N/A   Clear
1:53 PM 50.0 °F - 27.0 °F 41% 30.26 in 10.0 mi Variable 5.8 mph - N/A   Clear
2:53 PM 51.1 °F - 26.1 °F 38% 30.23 in 10.0 mi SE 5.8 mph - N/A   Clear
3:53 PM 53.1 °F - 26.1 °F 35% 30.22 in 10.0 mi SSE 6.9 mph - N/A   Clear
4:53 PM 53.1 °F - 26.1 °F 35% 30.22 in 10.0 mi Calm Calm - N/A   Clear
5:53 PM 54.0 °F - 26.1 °F 34% 30.23 in 10.0 mi East 5.8 mph - N/A   Clear
6:53 PM 51.1 °F - 25.0 °F 36% 30.24 in 10.0 mi East 4.6 mph - N/A   Clear
7:53 PM 45.0 °F 41.2 °F 24.1 °F 44% 30.28 in 10.0 mi ESE 6.9 mph - N/A   Clear
8:53 PM 42.1 °F 37.7 °F 24.1 °F 49% 30.28 in 10.0 mi ESE 6.9 mph - N/A   Clear
9:53 PM 39.9 °F 37.8 °F 24.1 °F 53% 30.30 in 10.0 mi ESE 3.5 mph - N/A   Clear
10:53 PM 39.0 °F - 24.1 °F 55% 30.29 in 10.0 mi Calm Calm - N/A   Clear
11:53 PM 41.0 °F - 26.1 °F 55% 30.29 in 10.0 mi Calm Calm - N/A   Clear